Home > Weather > Kreuztal > Past weeks

Flag for Germany Past Weather in Kreuztal, North Rhine-Westphalia, Germany — Yesterday and Last 2 Weeks

Now
55 °F

Sprinkles. Passing clouds.


Feels Like: 54 °F
Forecast: 49 / 63 °F
Wind: 6 mph from West

Location: Koeln / Bonn

Current Time: Jul 2, 2016 at 6:02:14 AM

Latest Report: Jul 2, 2016 at 5:20 AM


Visibility: N/A

Pressure: 29.92 "Hg

Humidity: 88%

Dew Point: 52 °F

Location of KreuztalLocation

Past Weather in Kreuztal — Graph

°F

Kreuztal Temperature Yesterday

Maximum temperature yesterday: 72 °F (at 6:20 PM)
Minimum temperature yesterday: 61 °F (at 3:20 AM)
Average temperature yesterday: 67 °F

High & Low Weather Summary for the Past Weeks

 TemperatureHumidityPressure
High91 °F (Jun 23, 3:20 PM)100% (Jun 17, 11:20 PM)30.27 "Hg (Jun 17, 11:20 PM)
Low45 °F (Jun 20, 3:20 AM)41% (Jun 23, 5:20 PM)29.59 "Hg (Jun 17, 4:20 AM)
Average64 °F79%30.02 "Hg
* Reported Jun 17 4:20 AM — Jul 2 4:50 AM, Kreuztal, Weather by CustomWeather, © 2016

Note: Actual official high and low records may vary slightly from our data, if they occured in-between our weather recording intervals... More about our weather records

Advertising

Kreuztal Weather History for the Previous 24 Hours

Scroll right to see more
 ConditionsComfort  
Time TempWeatherWind HumidityBarometerVisibility
4:50 AM
Sat, Jul 2
55 °FSprinkles. Passing clouds.10 mph88%29.92 "HgN/A
4:20 AM57 °FSprinkles. Passing clouds.16 mph94%29.89 "Hg3 mi
3:50 AM59 °FRain showers. Passing clouds.15 mph94%29.89 "HgN/A
3:20 AM63 °FRain showers. Partly cloudy.17 mph94%29.86 "HgN/A
2:50 AM66 °FScattered showers. Partly cloudy.12 mph78%29.86 "HgN/A
2:20 AM66 °FPassing clouds.12 mph78%29.86 "HgN/A
1:50 AM64 °FClear.9 mph83%29.86 "Hg10 mi
1:20 AM64 °FClear.9 mph83%29.86 "Hg10 mi
12:50 AM64 °FClear.9 mph83%29.86 "Hg10 mi
12:20 AM66 °FClear.10 mph78%29.89 "Hg10 mi
11:50 PM
Fri, Jul 1
66 °FPassing clouds.10 mph78%29.89 "HgN/A
11:20 PM66 °FClear.12 mph78%29.89 "Hg10 mi
10:50 PM68 °FPassing clouds.13 mph73%29.89 "HgN/A
10:20 PM66 °FLight rain. Broken clouds.8 mph78%29.89 "HgN/A
9:50 PM66 °FPassing clouds.7 mph73%29.89 "HgN/A
9:20 PM68 °FSunny.8 mph69%29.89 "Hg10 mi
8:50 PM70 °FPassing clouds.10 mph64%29.89 "HgN/A
8:20 PM70 °FPassing clouds.13 mph64%29.92 "HgN/A
7:50 PM70 °FPartly sunny.9 mph64%29.92 "HgN/A
7:20 PM72 °FBroken clouds.15 mph61%29.92 "HgN/A
6:50 PM72 °FBroken clouds.15 mph61%29.92 "HgN/A
6:20 PM72 °FBroken clouds.13 mph61%29.92 "HgN/A
5:50 PM70 °FPartly sunny.14 mph64%29.95 "HgN/A
5:20 PM70 °FBroken clouds.13 mph64%29.95 "HgN/A
4:50 PM70 °FBroken clouds.10 mph69%29.95 "HgN/A
4:20 PM70 °FBroken clouds.13 mph64%29.95 "HgN/A
3:50 PM70 °FBroken clouds.14 mph64%29.95 "HgN/A
3:20 PM70 °FPartly sunny.14 mph64%29.95 "HgN/A
2:50 PM68 °FPartly sunny.12 mph69%29.95 "HgN/A
2:20 PM70 °FPartly sunny.14 mph64%29.95 "HgN/A
1:50 PM70 °FPartly sunny.14 mph64%29.95 "HgN/A
1:20 PM68 °FPartly sunny.15 mph69%29.95 "HgN/A
12:50 PM70 °FBroken clouds.12 mph69%29.95 "HgN/A
12:20 PM70 °FBroken clouds.13 mph69%29.95 "HgN/A
11:50 AM70 °FBroken clouds.12 mph69%29.95 "HgN/A
11:20 AM68 °FBroken clouds.13 mph73%29.95 "HgN/A
10:50 AM68 °FPartly sunny.10 mph73%29.95 "HgN/A
10:20 AM68 °FPartly sunny.10 mph78%29.95 "HgN/A
9:50 AM66 °FBroken clouds.10 mph83%29.95 "HgN/A
9:20 AM66 °FBroken clouds.10 mph83%29.95 "HgN/A
8:50 AM64 °FPartly sunny.8 mph88%29.95 "HgN/A
8:20 AM64 °FPartly sunny.8 mph88%29.95 "HgN/A
7:50 AM64 °FPartly sunny.8 mph88%29.95 "HgN/A
7:20 AM64 °FBroken clouds.7 mph88%29.95 "HgN/A
6:50 AM63 °FBroken clouds.6 mph94%29.95 "HgN/A
6:20 AM63 °FSprinkles. Passing clouds.7 mph94%29.95 "HgN/A
Weather by CustomWeather, © 2016

See weather overviewHow to use our weather pages